Regional Weather Roundup
Issued by NWS

Home | Current Version | Previous Version | Text Only | Print | Product List | Glossary Off
Versions: 1 2 3 4 5 6 7 8 9 10 11 12 13 14 15 16 17 18 19 20 21 22 23 24 25 26 27 28 29 30 31 32 33 34 35 36 37 38 39 40 41 42 43 44 45 46 47 48 49 50

000
ASUS43 KBIS 202310
RWRND

NORTH DAKOTA REGIONAL WEATHER ROUNDUP
NATIONAL WEATHER SERVICE BISMARCK ND
500 PM CST MON NOV 20 2017

NOTE: "FAIR" INDICATES FEW OR NO CLOUDS BELOW 12,000 FEET WITH NO
SIGNIFICANT WEATHER AND/OR OBSTRUCTIONS TO VISIBILITY.


NDZ001>003-009>011-017-210000-
NORTHWEST NORTH DAKOTA

CITY           SKY/WX    TMP DP  RH WIND       PRES   REMARKS
WILLISTON      MOCLDY    32  16  51 NW18      29.71R
MINOT          CLEAR     30  19  63 W30G41    29.58R WCI  15
MINOT AFB      CLEAR     28  19  70 NW26G38   29.56R WCI  13
$$

NDZ018>021-031>035-040>046-210000-
SOUTHWEST NORTH DAKOTA

CITY           SKY/WX    TMP DP  RH WIND       PRES   REMARKS
BISMARCK       CLEAR     46  30  53 NW22G35   29.61R
DICKINSON      CLOUDY    38  25  59 NW17      29.64R
GARRISON         N/A     33  22  63 NW22G36   29.61R
HETTINGER ARPT CLOUDY    47  25  42 NW24G38   29.65R
$$

NDZ004>008-012>016-024-026-027-054-210000-
NORTHEAST NORTH DAKOTA

CITY           SKY/WX    TMP DP  RH WIND       PRES   REMARKS
GRAND FORKS    PTCLDY    40  32  73 W23G33    29.34R
GRND FRKS AFB  CLEAR     40  31  68 W22G33    29.36R
DEVILS LAKE    CLEAR     35  27  72 NW30G40   29.41R
$$

NDZ022-023-025-028>030-036>039-047>053-210000-
SOUTHEAST NORTH DAKOTA

CITY           SKY/WX    TMP DP  RH WIND       PRES   REMARKS
FARGO          CLEAR     50  26  39 W26G38    29.40R
JAMESTOWN      CLEAR     43  30  60 W30G40    29.47R
$$




USA.gov is the U.S. government's official web portal to all federal, state and local government web resources and services.